Volver al catálogo

KUIPER-00409

ActivoComunicacionesLEO
NORAD 68925·PAYLOAD·🇺🇸 United States

Lanzado Apr 30, 2026 desde Guiana Space Centre

Loading…

Próximos Pases (próximas 24 horas)

TLE

ActualizadoSource: CelesTrak SupGP

Época: Sep 14, 2026, 20:59 UTC

1 68925C 26098G   26257.87471065 -.00050763  00000+0 -66413-2 0  2576
2 68925  51.9033  21.5722 0000693  84.4238 137.0659 14.80005549    17

Sigue KUIPER-00409 en tiempo real con AllMySat

Download on the App Store